Location: Gandikunta
(16.3784°N, 80.8378°E)
Time: 22:16:46
(UTC+00:00)

Cosmos 1943 - Pass Details

Date: 19 May 2025
Orbit: 830 x 850 km, 71.0° (Epoch: 18 June)

Event Time Altitude Azimuth Distance (km) Brightness Sun altitude
Rises 23:39:11 0° 346° (NNW) 3,405 6.5 -6.6°
Reaches altitude 10° 23:41:38 10° 348° (NNW) 2,469 5.8 -6.0°
Maximum altitude 23:47:18 75° 73° (ENE) 877 3.5 -4.8°
Drops below altitude 10° 23:52:58 10° 159° (SSE) 2,463 5.6 -3.5°
Sets 23:55:24 0° 160° (SSE) 3,396 6.3 -3.0°
